Location: Newark
(55.7083°N, 13.1992°E)
Time: 14:10:28
(UTC+00:00)

N. Korean satellite - Visible Passes

Search period start: 24 January 2020 00:00
Search period end: 03 February 2020 00:00
Orbit: 454 x 507 km, 97.2° (Epoch: 23 January)

Date Brightness Start Highest point End Pass type
(mag) Time Alt. Az. Time Alt. Az. Time Alt. Az.
24 Jan 8.4 04:33:55 10° NNE 04:37:10 33° E 04:40:26 10° SSE visible
24 Jan 7.4 06:07:27 10° N 06:10:31 28° WNW 06:13:37 10° SW visible
24 Jan 9.3 16:50:31 10° SW 16:53:15 22° W 16:56:00 10° NW visible
25 Jan 9.4 04:08:51 10° NE 04:11:29 19° E 04:14:08 10° SE visible
25 Jan 6.7 05:41:42 10° N 05:45:08 48° WNW 05:48:36 10° SW visible
25 Jan 8.1 16:24:21 10° SSW 16:27:35 38° W 16:30:51 10° NNW visible
26 Jan 10.1 03:44:33 10° ENE 03:45:43 11° E 03:46:54 10° ESE visible
26 Jan 6.5 05:16:05 10° NNE 05:19:40 89° WNW 05:23:16 10° SSW visible
27 Jan 7.5 04:50:38 10° NNE 04:54:07 49° E 04:57:39 10° S visible
27 Jan 7.8 06:24:33 10° NNW 06:27:16 21° WNW 06:30:00 10° WSW visible
27 Jan 9.8 17:08:09 10° SW 17:10:15 15° W 17:12:23 10° NW visible
28 Jan 8.7 04:25:21 10° NE 04:28:30 28° E 04:31:38 10° SSE visible
28 Jan 7.2 05:58:40 10° N 06:01:56 33° WNW 06:05:13 10° SW visible
28 Jan 9.0 16:41:35 10° SSW 16:44:31 26° W 16:47:30 10° NW visible
29 Jan 9.6 04:00:25 10° NE 04:02:47 16° E 04:05:09 10° SE visible
29 Jan 6.5 05:32:58 10° N 05:36:31 60° WNW 05:40:05 10° SSW visible
29 Jan 7.7 16:15:32 10° S 16:18:52 48° W 16:22:16 10° NNW visible
30 Jan 6.7 05:07:25 10° NNE 05:11:01 75° ESE 05:14:39 10° S visible
30 Jan 10.2 17:26:32 10° W 17:27:18 11° W 17:28:05 10° WNW visible
31 Jan 8.0 04:42:00 10° NNE 04:45:26 40° E 04:48:55 10° S visible
31 Jan 7.7 06:15:43 10° N 06:18:41 24° WNW 06:21:40 10° WSW visible
31 Jan 9.7 16:59:01 10° SW 17:01:30 18° W 17:04:01 10° NW visible
01 Feb 9.1 04:16:48 10° NE 04:19:47 23° E 04:22:46 10° SSE visible
01 Feb 7.0 05:49:54 10° N 05:53:19 40° WNW 05:56:46 10° SW visible
01 Feb 8.6 16:32:39 10° SSW 16:35:47 32° W 16:38:58 10° NNW visible
02 Feb 9.9 03:52:02 10° NE 03:54:01 14° E 03:56:01 10° ESE visible
02 Feb 6.5 05:24:15 10° N 05:27:52 73° WNW 05:31:32 10° SSW visible
